Date,TemperatureHighF,TemperatureAvgF,TemperatureLowF,DewpointHighF,DewpointAvgF,DewpointLowF,HumidityHigh,HumidityAvg,HumidityLow,PressureMaxIn,PressureMinIn,WindSpeedMaxMPH,WindSpeedAvgMPH,GustSpeedMaxMPH,PrecipitationSumIn
2013-2-1,33.6,29.2,19.0,23.4,20.9,17.4,96,72,58,30.00,29.69,34,9,36,0.00
2013-2-2,34.5,32.3,30.4,22.3,20.9,19.9,67,62,58,29.70,29.41,31,10,32,0.00
2013-2-3,35.8,33.0,30.6,28.8,23.6,20.1,86,68,61,29.49,29.28,27,5,27,0.00
2013-2-4,38.3,33.2,30.0,28.2,24.1,20.8,80,69,55,29.67,29.49,18,5,18,0.00
2013-2-5,33.3,29.3,25.2,20.7,16.1,13.8,64,58,48,29.65,29.50,16,4,16,0.00
2013-2-6,26.8,25.2,23.4,23.9,20.1,13.8,94,82,60,29.65,29.48,15,2,15,0.00
2013-2-7,27.1,24.7,21.9,23.4,15.8,12.9,92,69,57,29.63,29.32,24,8,29,0.00
2013-2-8,32.5,27.5,23.0,28.9,22.2,13.5,92,80,61,29.78,29.39,18,3,22,0.01
2013-2-9,39.0,34.5,30.4,31.8,22.4,18.1,75,61,52,29.75,29.03,23,9,31,0.00
2013-2-10,40.6,36.0,30.7,32.0,30.0,28.0,94,79,65,29.49,29.00,23,4,26,0.09
2013-2-11,30.7,24.7,16.3,29.3,21.6,13.8,96,88,73,29.78,29.49,16,2,18,0.00
2013-2-12,29.7,25.1,20.7,16.9,15.0,13.1,81,65,57,29.78,29.75,24,8,27,0.00
2013-2-13,31.1,27.9,24.8,18.3,15.4,13.1,64,59,54,29.85,29.70,24,9,31,0.00
2013-2-14,33.4,31.5,28.0,27.3,19.5,15.6,94,62,49,29.70,29.22,30,10,35,0.00
2013-2-15,29.7,26.6,20.8,27.9,24.7,17.1,95,92,84,29.92,29.51,6,0,12,0.00
2013-2-16,24.1,21.6,19.9,18.3,15.4,11.7,90,77,63,30.03,29.80,14,3,25,0.00
2013-2-17,29.3,24.4,16.5,22.8,16.3,12.0,92,72,55,29.79,29.57,18,5,28,0.00
2013-2-18,18.5,11.5,-2.6,13.6,7.4,-6.2,90,84,69,29.90,29.75,6,1,10,0.01
2013-2-19,17.1,12.4,-1.1,6.1,2.2,-4.4,90,64,52,29.87,29.32,24,8,37,0.00
2013-2-20,30.2,22.3,15.1,15.4,10.4,3.4,73,60,48,29.32,29.05,25,9,32,0.00
2013-2-21,28.9,21.9,17.2,12.9,10.2,7.7,73,60,47,29.27,29.11,17,4,18,0.00
2013-2-22,25.0,20.8,16.2,20.3,16.9,12.6,93,85,74,29.45,29.20,10,1,10,0.00
2013-2-23,27.3,22.8,14.7,18.7,12.0,10.2,89,64,50,29.42,29.15,33,8,33,0.00
2013-2-24,33.3,26.7,21.2,17.2,14.5,11.5,83,61,49,29.66,29.35,20,7,20,0.00
2013-2-25,33.4,27.8,23.4,14.7,12.6,10.2,59,52,43,29.69,29.60,36,11,38,0.00
2013-2-26,35.8,30.6,27.9,13.5,10.6,8.6,54,43,34,29.60,29.34,36,14,39,0.00
2013-2-27,32.4,29.3,27.3,16.2,12.1,9.0,55,48,40,29.35,29.22,41,14,41,0.00
2013-2-28,36.1,30.3,25.7,19.2,15.9,12.4,74,55,46,29.39,29.30,31,7,31,0.00